Regional Weather Roundup
Issued by NWS Sioux Falls, SD

Home | Current Version | Previous Version | Text Only | Print | Product List | Glossary Off
Versions: 1 2 3 4 5 6 7 8 9 10 11 12 13 14 15 16 17 18 19 20 21 22 23 24 25 26 27 28 29 30 31 32 33 34 35 36 37 38 39 40 41 42 43 44 45 46 47 48 49 50

000
ASUS43 KFSD 210510
RWRFSD

WEATHER ROUNDUP FOR SE SOUTH DAKOTA/SW MINNESOTA/NW IOWA
NATIONAL WEATHER SERVICE SIOUX FALLS SD
1200 AM CDT FRI JUL 21 2017

NOTE: "FAIR" INDICATES FEW OR NO CLOUDS BELOW 12,000 FEET WITH NO
SIGNIFICANT WEATHER AND OR OBSTRUCTIONS TO VISIBILITY.


SDZ038>040-050-052>070-210600-
SOUTHEAST SOUTH DAKOTA

CITY           SKY/WX    TMP DP  RH WIND       PRES   REMARKS
BROOKINGS      CLOUDY    73  68  84 SE12      29.96F
CHAMBERLAIN    CLEAR     78  74  87 E8        29.88R
HURON          CLOUDY    76  70  82 SE8       29.91R
MADISON        FAIR      68  68 100 E8        29.95F
MITCHELL       CLEAR     76  73  91 E7        29.88F
SIOUX FALLS    CLEAR     77  73  87 E7        29.92F
WINNER         FAIR      81  72  74 SE12      29.88F
YANKTON        CLEAR     75  70  84 E3        29.89F
$$

MNZ071-072-080-081-089-090-097-098-210600-
SOUTHWEST MINNESOTA

CITY           SKY/WX    TMP DP  RH WIND       PRES   REMARKS
FAIRMONT       CLOUDY    73  71  93 E6        29.97R
JACKSON        CLEAR     72  72 100 CALM      29.97S FOG
LUVERNE        CLEAR     72  68  88 NE3       29.94F
MARSHALL       CLEAR     72  69  90 SE6       29.95F
MONTEVIDEO     MOCLDY    68  66  94 S5        29.95F
PIPESTONE      CLEAR     73  70  88 SE6       29.96F
REDWOOD FALLS  CLEAR     71  68  90 E6        29.95S
TRACY          CLEAR     73  71  95 S3        29.96F
WINDOM         CLEAR     72  68  88 CALM      29.97S
WORTHINGTON    CLEAR     71  70  96 E5        29.97F
$$

IAZ001>003-012>014-020>022-031-032-NEZ013-014-SDZ071-210600-
NORTHWEST IOWA

CITY           SKY/WX    TMP DP  RH WIND       PRES   REMARKS
CHEROKEE       CLOUDY    73  71  95 CALM      29.93F
DENISON        CLOUDY    73  70  88 CALM      29.94R
ESTHERVILLE    CLOUDY    71  71 100 E6        29.96R
ORANGE CITY    CLEAR     75  73  94 E3        29.92F
SHELDON          N/A     75  73  94 CALM      29.92S
SIOUX CITY     CLEAR     76  68  76 E5        29.89F
SPENCER        CLOUDY    75  73  93 E8        29.95R
STORM LAKE     MOCLDY    72  68  88 SE5       29.95S
$$

ABBREVIATIONS USED IN REMARKS
   TC - TEMPERATURE IN CELSIUS
  WCI - WIND CHILL INDEX
   HX - HEAT INDEX
  VSB - VISIBILITY





USA.gov is the U.S. government's official web portal to all federal, state and local government web resources and services.